sat.trackr.live / text

‹ back to catalog

STARLINK-32224

NORAD 60941 · 2024-155T

PAYLOAD ACTIVE UNKNOWN

§ Identity

Operator
Country
US
Launch date
2024-08-31
Launch site
AFWTR
Launch vehicle
Mass (kg)
RCS (m²)

Purposes: comms

External: N2YO · Heavens-Above · Gunter

§ Orbital elements

Epoch: 2026-09-20T09:26:24.870624Z

Period
93.85 min
Inclination
53.1624°
Eccentricity
0.0001898
Mean motion
15.34336163 rev/d
Perigee alt
461.6 km
Apogee alt
464.2 km
Semi-major
6,841.0 km
B*
3.4075e-4
RAAN
302.2636°
Arg perigee
63.2312°
Mean anomaly
296.8884°
Rev number
11,620

§ Raw data

STARLINK-322241 60941U 24155T   26263.39334341  .00011131  00000+0  34075-3 0  99942 60941  53.1624 302.2636 0001898  63.2312 296.8884 15.34336163116208

JSON: /api/v1/satellites/60941 · /tle

For live sub-satellite position, see the globe view (requires WebGL).

§ Visibility from observer

Set your observer location to see the next 7 days of passes ≥ 10°. The values pass through the URL so the page stays shareable.

No JS? Fill the form by hand. The geolocation button needs JavaScript.